| time (UTC) | temp C | wind direction | speed KPH | gust KPH | rain 1hr cm | rain 24hr cm | rain mn cm | humidity % | barometer mb |
| 20260502151622 | 26 | 298 | 0.0 | 0.0 | 0.00 | 0.00 | 0.00 | 25 | 985.4 |
| 20260502151501 | 26 | 4 | 0.0 | 0.0 | 0.00 | 0.00 | 0.00 | 26 | 985.4 |
| 20260502150106 | 25 | 314 | 0.0 | 0.0 | 0.00 | 0.00 | 0.00 | 25 | 985.3 |
| 20260502123017 | -17 | 0.0 | 0.0 | 0.00 | 0.00 | 0.00 | 983.5 | ||
| 20260502121511 | -17 | 0.0 | 0.0 | 0.00 | 0.00 | 0.00 | 983.4 | ||
| 20260502114505 | -17 | 0.0 | 0.0 | 0.00 | 0.00 | 0.00 | 983.2 | ||
| 20260502113057 | -17 | 0.0 | 0.0 | 0.00 | 0.00 | 0.00 | 983.0 | ||
| 20260502111552 | -17 | 0.0 | 0.0 | 0.00 | 0.00 | 0.00 | 983.0 | ||
| 20260502110055 | -17 | 0.0 | 0.0 | 0.00 | 0.00 | 0.00 | 983.0 | ||
| 20260502104546 | -17 | 0.0 | 0.0 | 0.00 | 0.00 | 0.00 | 983.0 | ||
| 20260502103037 | -17 | 0.0 | 0.0 | 0.00 | 0.00 | 0.00 | 982.9 | ||
| 20260502101529 | -17 | 0.0 | 0.0 | 0.00 | 0.00 | 0.00 | 982.8 | ||
| 20260502091518 | 23 | 294 | 0.0 | 0.0 | 0.00 | 0.00 | 0.00 | 24 | 982.5 |
| 20260502071535 | 22 | 259 | 0.0 | 0.0 | 0.00 | 0.00 | 0.00 | 26 | 981.9 |
| 20260502070046 | 22 | 236 | 0.0 | 0.0 | 0.00 | 0.00 | 0.00 | 26 | 981.8 |
| 20260502064530 | 22 | 195 | 0.0 | 0.0 | 0.00 | 0.00 | 0.00 | 29 | 981.8 |
| 20260502063033 | 23 | 194 | 0.0 | 0.0 | 0.00 | 0.00 | 0.00 | 25 | 981.6 |
| 20260502061529 | 23 | 185 | 0.0 | 0.0 | 0.00 | 0.00 | 0.00 | 27 | 981.6 |
| 20260502060031 | 23 | 72 | 0.0 | 0.0 | 0.00 | 0.00 | 0.00 | 26 | 981.3 |
| 20260502054527 | 23 | 59 | 0.0 | 0.0 | 0.00 | 0.00 | 0.00 | 31 | 981.2 |
| 20260502053026 | 23 | 51 | 0.0 | 0.0 | 0.00 | 0.00 | 0.00 | 30 | 981.2 |
| 20260502051530 | 24 | 139 | 0.0 | 0.0 | 0.00 | 0.00 | 0.00 | 26 | 981.2 |
| 20260502050025 | 25 | 64 | 0.0 | 0.0 | 0.00 | 0.00 | 0.00 | 28 | 981.0 |
| 20260502044522 | 24 | 59 | 0.0 | 0.0 | 0.00 | 0.00 | 0.00 | 30 | 981.0 |
| 20260502043022 | 24 | 47 | 0.0 | 0.0 | 0.00 | 0.00 | 0.00 | 25 | 980.9 |
| 20260502041522 | 25 | 56 | 0.0 | 0.0 | 0.00 | 0.00 | 0.00 | 28 | 980.7 |
| 20260502040032 | 25 | 75 | 0.0 | 0.0 | 0.00 | 0.00 | 0.00 | 27 | 980.6 |
| 20260502034519 | 26 | 118 | 0.0 | 0.0 | 0.00 | 0.00 | 0.00 | 23 | 980.5 |
| 20260502033017 | 26 | 110 | 0.0 | 0.0 | 0.00 | 0.00 | 0.00 | 22 | 980.3 |
| 20260502031517 | 27 | 127 | 0.0 | 0.0 | 0.00 | 0.00 | 0.00 | 22 | 980.1 |
| 20260502030017 | 27 | 82 | 0.0 | 0.0 | 0.00 | 0.00 | 0.00 | 21 | 979.9 |
| 20260502024534 | 28 | 77 | 0.0 | 0.0 | 0.00 | 0.00 | 0.00 | 21 | 979.8 |
| 20260502023105 | 28 | 70 | 0.0 | 0.0 | 0.00 | 0.00 | 0.00 | 20 | 979.6 |
| 20260502021546 | 28 | 82 | 0.0 | 0.0 | 0.00 | 0.00 | 0.00 | 20 | 979.5 |
| 20260502020045 | 29 | 77 | 0.0 | 0.0 | 0.00 | 0.00 | 0.00 | 19 | 979.3 |
| 20260502014544 | 30 | 57 | 0.0 | 1.6 | 0.00 | 0.00 | 0.00 | 19 | 979.3 |
| 20260502013041 | 30 | 60 | 0.0 | 0.0 | 0.00 | 0.00 | 0.00 | 19 | 979.2 |
| 20260502011543 | 30 | 100 | 0.0 | 0.0 | 0.00 | 0.00 | 0.00 | 19 | 979.2 |
| 20260502010009 | 30 | 75 | 0.0 | 1.6 | 0.00 | 0.00 | 0.00 | 19 | 979.3 |
| 20260502004509 | 31 | 131 | 0.0 | 0.0 | 0.00 | 0.00 | 0.00 | 17 | 979.3 |
| 20260502003005 | 30 | 155 | 0.0 | 0.0 | 0.00 | 0.00 | 0.00 | 20 | 979.3 |
| 20260502001504 | 30 | 57 | 0.0 | 0.0 | 0.00 | 0.00 | 0.00 | 20 | 979.4 |
| 20260502000003 | 31 | 77 | 0.0 | 0.0 | 0.00 | 0.00 | 0.00 | 21 | 979.5 |
| 20260501234501 | 31 | 131 | 0.0 | 16.1 | 0.00 | 0.00 | 0.00 | 21 | 979.6 |
| 20260501233058 | 31 | 35 | 0.0 | 0.0 | 0.00 | 0.00 | 0.00 | 22 | 979.7 |
| 20260501231602 | 31 | 120 | 0.0 | 0.0 | 0.00 | 0.00 | 0.00 | 21 | 979.8 |
| 20260501230056 | 30 | 85 | 0.0 | 0.0 | 0.00 | 0.00 | 0.00 | 22 | 979.8 |
| 20260501224555 | 31 | 210 | 0.0 | 0.0 | 0.00 | 0.00 | 0.00 | 21 | 980.1 |
| 20260501223107 | 30 | 61 | 0.0 | 0.0 | 0.00 | 0.00 | 0.00 | 23 | 980.2 |
| 20260501221550 | 30 | 162 | 0.0 | 17.7 | 0.00 | 0.00 | 0.00 | 24 | 980.6 |
| 20260501220048 | 30 | 42 | 0.0 | 0.0 | 0.00 | 0.00 | 0.00 | 22 | 980.6 |
| 20260501214548 | 30 | 77 | 0.0 | 1.6 | 0.00 | 0.00 | 0.00 | 21 | 980.9 |
| 20260501213016 | 30 | 146 | 0.0 | 0.0 | 0.00 | 0.00 | 0.00 | 21 | 981.2 |
| 20260501211514 | 29 | 88 | 0.0 | 0.0 | 0.00 | 0.00 | 0.00 | 19 | 981.5 |
| 20260501210011 | 29 | 219 | 0.0 | 0.0 | 0.00 | 0.00 | 0.00 | 22 | 981.6 |
| 20260501204508 | 29 | 134 | 0.0 | 0.0 | 0.00 | 0.00 | 0.00 | 23 | 981.8 |
| 20260501203024 | 28 | 72 | 0.0 | 0.0 | 0.00 | 0.00 | 0.00 | 25 | 982.0 |
| 20260501201507 | 28 | 191 | 0.0 | 0.0 | 0.00 | 0.00 | 0.00 | 23 | 982.2 |
| 20260501200036 | 28 | 135 | 0.0 | 1.6 | 0.00 | 0.00 | 0.00 | 26 | 982.3 |
| 20260501194534 | 28 | 66 | 0.0 | 0.0 | 0.00 | 0.00 | 0.00 | 27 | 982.4 |
| 20260501193031 | 27 | 124 | 0.0 | 0.0 | 0.00 | 0.00 | 0.00 | 28 | 982.7 |
| 20260501191529 | 27 | 138 | 0.0 | 1.6 | 0.00 | 0.00 | 0.00 | 28 | 982.9 |
| 20260501190040 | 27 | 118 | 0.0 | 0.0 | 0.00 | 0.00 | 0.00 | 28 | 983.1 |
| 20260501184549 | 27 | 58 | 0.0 | 0.0 | 0.00 | 0.00 | 0.00 | 29 | 983.3 |
| 20260501183022 | 26 | 293 | 0.0 | 0.0 | 0.00 | 0.00 | 0.00 | 30 | 983.5 |
| 20260501181521 | 26 | 82 | 0.0 | 4.8 | 0.00 | 0.00 | 0.00 | 30 | 983.7 |
| 20260501180023 | 26 | 23 | 0.0 | 0.0 | 0.00 | 0.00 | 0.00 | 31 | 983.9 |
| 20260501174520 | 26 | 132 | 0.0 | 0.0 | 0.00 | 0.00 | 0.00 | 34 | 984.0 |
| 20260501173056 | 25 | 60 | 0.0 | 0.0 | 0.00 | 0.00 | 0.00 | 34 | 984.2 |
| 20260501171542 | 25 | 339 | 0.0 | 0.0 | 0.00 | 0.00 | 0.00 | 33 | 984.2 |
| 20260501170040 | 24 | 56 | 0.0 | 0.0 | 0.00 | 0.00 | 0.00 | 34 | 984.2 |
| 20260501164552 | 24 | 91 | 0.0 | 0.0 | 0.00 | 0.00 | 0.00 | 35 | 984.1 |
| 20260501163040 | 24 | 99 | 0.0 | 0.0 | 0.00 | 0.00 | 0.00 | 35 | 984.1 |
| 20260501161535 | 23 | 83 | 0.0 | 0.0 | 0.00 | 0.00 | 0.00 | 36 | 984.1 |
| 20260501160002 | 23 | 89 | 0.0 | 0.0 | 0.00 | 0.00 | 0.00 | 37 | 984.1 |
| 20260501154600 | 23 | 133 | 0.0 | 0.0 | 0.00 | 0.00 | 0.00 | 37 | 983.9 |
| 20260501153028 | 23 | 125 | 0.0 | 1.6 | 0.00 | 0.00 | 0.00 | 38 | 983.8 |